Time,TemperatureF,DewpointF,PressureIn,WindDirection,WindDirectionDegrees,WindSpeedMPH,WindSpeedGustMPH,Humidity,HourlyPrecipIn,Conditions,Clouds,dailyrainin,SoftwareType,DateUTC
2013-09-12 00:01:00,61.7,60.0,29.99,NE,55,0.0,1.0,95,0.00,,,0.00,weatherlink.com 1.10,2013-09-12 06:01:00,
2013-09-12 00:16:00,61.6,60.0,29.99,NE,55,0.0,0.0,95,0.00,,,0.00,weatherlink.com 1.10,2013-09-12 06:16:00,
2013-09-12 00:31:00,61.7,61.0,29.99,NE,55,0.0,0.0,96,0.00,,,0.00,weatherlink.com 1.10,2013-09-12 06:31:00,
2013-09-12 00:46:00,61.8,61.0,29.99,NE,55,0.0,1.0,96,0.00,,,0.00,weatherlink.com 1.10,2013-09-12 06:46:00,
2013-09-12 01:01:00,61.8,61.0,29.99,WNW,288,0.0,5.0,96,0.00,,,0.00,weatherlink.com 1.10,2013-09-12 07:01:00,
2013-09-12 01:16:00,60.9,60.0,29.99,North,11,2.0,4.0,95,0.00,,,0.00,weatherlink.com 1.10,2013-09-12 07:16:00,
2013-09-12 01:32:00,59.6,58.0,30.00,NW,304,2.0,8.0,93,0.00,,,0.00,weatherlink.com 1.10,2013-09-12 07:32:00,
2013-09-12 01:47:00,59.4,58.0,30.00,WNW,302,0.0,9.0,94,0.00,,,0.00,weatherlink.com 1.10,2013-09-12 07:47:00,
2013-09-12 02:02:00,59.1,57.0,30.00,West,280,0.0,7.0,94,0.00,,,0.00,weatherlink.com 1.10,2013-09-12 08:02:00,
2013-09-12 02:17:00,59.0,57.0,30.00,NW,311,0.0,6.0,94,0.00,,,0.00,weatherlink.com 1.10,2013-09-12 08:17:00,
2013-09-12 02:32:00,58.8,57.0,30.00,NW,322,0.0,5.0,95,0.00,,,0.00,weatherlink.com 1.10,2013-09-12 08:32:00,
2013-09-12 02:47:00,58.6,57.0,30.00,NW,312,0.0,5.0,94,0.00,,,0.00,weatherlink.com 1.10,2013-09-12 08:47:00,
2013-09-12 03:02:00,58.4,57.0,30.01,West,280,0.0,6.0,94,0.00,,,0.00,weatherlink.com 1.10,2013-09-12 09:02:00,
2013-09-12 03:17:00,58.2,57.0,30.01,WNW,282,0.0,2.0,94,0.00,,,0.00,weatherlink.com 1.10,2013-09-12 09:17:00,
2013-09-12 03:32:00,58.1,56.0,30.01,WNW,282,0.0,1.0,94,0.00,,,0.00,weatherlink.com 1.10,2013-09-12 09:32:00,
2013-09-12 03:47:00,58.0,56.0,30.01,WNW,284,0.0,2.0,94,0.00,,,0.00,weatherlink.com 1.10,2013-09-12 09:47:00,
2013-09-12 04:02:00,58.0,56.0,30.02,WNW,284,0.0,0.0,94,0.00,,,0.00,weatherlink.com 1.10,2013-09-12 10:02:00,
2013-09-12 04:17:00,58.0,57.0,30.02,WNW,284,0.0,0.0,95,0.00,,,0.00,weatherlink.com 1.10,2013-09-12 10:17:00,
2013-09-12 04:32:00,58.0,57.0,30.02,WNW,284,0.0,2.0,95,0.00,,,0.00,weatherlink.com 1.10,2013-09-12 10:32:00,
2013-09-12 04:47:00,58.1,57.0,30.02,WNW,284,0.0,0.0,95,0.00,,,0.00,weatherlink.com 1.10,2013-09-12 10:47:00,
2013-09-12 05:02:00,58.2,57.0,30.02,WNW,284,0.0,0.0,95,0.00,,,0.00,weatherlink.com 1.10,2013-09-12 11:02:00,
2013-09-12 05:17:00,58.3,57.0,30.02,WNW,284,0.0,3.0,95,0.00,,,0.00,weatherlink.com 1.10,2013-09-12 11:17:00,
2013-09-12 05:32:00,58.4,57.0,30.02,WNW,284,0.0,0.0,95,0.00,,,0.00,weatherlink.com 1.10,2013-09-12 11:32:00,
2013-09-12 05:47:00,58.3,57.0,30.03,WNW,284,0.0,0.0,95,0.00,,,0.00,weatherlink.com 1.10,2013-09-12 11:47:00,
2013-09-12 06:02:00,58.4,57.0,30.02,WNW,284,0.0,0.0,96,0.00,,,0.00,weatherlink.com 1.10,2013-09-12 12:02:00,
2013-09-12 06:17:00,58.5,57.0,30.02,WNW,284,0.0,0.0,96,0.00,,,0.00,weatherlink.com 1.10,2013-09-12 12:17:00,
2013-09-12 06:32:00,58.5,57.0,30.03,WNW,284,0.0,0.0,96,0.00,,,0.00,weatherlink.com 1.10,2013-09-12 12:32:00,
2013-09-12 06:47:00,58.4,57.0,30.03,WNW,284,2.0,2.0,96,0.00,,,0.00,weatherlink.com 1.10,2013-09-12 12:47:00,
2013-09-12 07:02:00,58.7,58.0,30.04,WNW,284,2.0,3.0,96,0.00,,,0.00,weatherlink.com 1.10,2013-09-12 13:02:00,
2013-09-12 07:17:00,58.6,58.0,30.05,West,269,0.0,4.0,96,0.00,,,0.00,weatherlink.com 1.10,2013-09-12 13:17:00,
2013-09-12 07:32:00,58.7,57.0,30.04,WNW,302,0.0,5.0,95,0.00,,,0.00,weatherlink.com 1.10,2013-09-12 13:32:00,
2013-09-12 07:47:00,58.6,57.0,30.05,WNW,290,0.0,4.0,95,0.00,,,0.00,weatherlink.com 1.10,2013-09-12 13:47:00,
2013-09-12 08:02:00,58.6,57.0,30.05,WNW,288,0.0,2.0,95,0.00,,,0.00,weatherlink.com 1.10,2013-09-12 14:02:00,
2013-09-12 08:17:00,58.7,58.0,30.05,WNW,284,0.0,2.0,96,0.00,,,0.00,weatherlink.com 1.10,2013-09-12 14:17:00,
2013-09-12 08:32:00,58.9,58.0,30.05,WNW,285,0.0,2.0,95,0.00,,,0.00,weatherlink.com 1.10,2013-09-12 14:32:00,
2013-09-12 08:47:00,59.4,58.0,30.06,NE,42,0.0,2.0,96,0.00,,,0.00,weatherlink.com 1.10,2013-09-12 14:47:00,
2013-09-12 09:02:00,59.9,59.0,30.06,NNE,30,5.0,5.0,96,0.00,,,0.00,weatherlink.com 1.10,2013-09-12 15:02:00,
2013-09-12 09:17:00,59.9,59.0,30.06,NE,56,0.0,4.0,96,0.00,,,0.00,weatherlink.com 1.10,2013-09-12 15:17:00,
2013-09-12 09:32:00,60.1,59.0,30.06,NE,46,2.0,7.0,96,0.00,,,0.00,weatherlink.com 1.10,2013-09-12 15:32:00,
2013-09-12 09:47:00,60.2,59.0,30.07,NNE,30,1.0,5.0,96,0.00,,,0.00,weatherlink.com 1.10,2013-09-12 15:47:00,
2013-09-12 10:02:00,60.4,59.0,30.07,NE,42,2.0,8.0,96,0.00,,,0.00,weatherlink.com 1.10,2013-09-12 16:02:00,
2013-09-12 10:17:00,60.8,60.0,30.07,NNE,12,1.0,6.0,96,0.00,,,0.00,weatherlink.com 1.10,2013-09-12 16:17:00,
2013-09-12 10:32:00,60.5,59.0,30.07,East,84,1.0,7.0,96,0.00,,,0.00,weatherlink.com 1.10,2013-09-12 16:32:00,
2013-09-12 10:47:00,60.8,60.0,30.07,ENE,61,1.0,3.0,96,0.00,,,0.00,weatherlink.com 1.10,2013-09-12 16:47:00,
2013-09-12 11:02:00,60.8,59.0,30.07,NE,45,3.0,7.0,95,0.00,,,0.00,weatherlink.com 1.10,2013-09-12 17:02:00,
2013-09-12 11:17:00,60.9,60.0,30.07,NNE,22,2.0,8.0,95,0.00,,,0.00,weatherlink.com 1.10,2013-09-12 17:17:00,
2013-09-12 11:32:00,61.1,60.0,30.06,NE,48,1.0,5.0,95,0.00,,,0.00,weatherlink.com 1.10,2013-09-12 17:32:00,
2013-09-12 11:47:00,61.3,60.0,30.06,NE,42,1.0,5.0,94,0.00,,,0.00,weatherlink.com 1.10,2013-09-12 17:47:00,
2013-09-12 12:02:00,61.5,60.0,30.06,ENE,57,0.0,5.0,95,0.00,,,0.00,weatherlink.com 1.10,2013-09-12 18:02:00,
2013-09-12 12:17:00,61.9,60.0,30.06,ENE,62,4.0,4.0,93,0.00,,,0.00,weatherlink.com 1.10,2013-09-12 18:17:00,
2013-09-12 12:32:00,62.3,60.0,30.05,NE,46,0.0,4.0,92,0.00,,,0.00,weatherlink.com 1.10,2013-09-12 18:32:00,
2013-09-12 13:02:00,62.1,60.0,30.05,WNW,298,0.0,4.0,91,0.00,,,0.00,weatherlink.com 1.10,2013-09-12 19:02:00,
2013-09-12 13:32:00,61.5,60.0,30.04,NE,51,1.0,3.0,94,0.00,,,0.00,weatherlink.com 1.10,2013-09-12 19:32:00,
2013-09-12 13:47:00,61.4,60.0,30.03,East,98,0.0,4.0,94,0.00,,,0.00,weatherlink.com 1.10,2013-09-12 19:47:00,
2013-09-12 14:02:00,61.5,60.0,30.03,NE,46,0.0,4.0,95,0.00,,,0.00,weatherlink.com 1.10,2013-09-12 20:02:00,
2013-09-12 14:17:00,61.3,60.0,30.02,NW,315,0.0,3.0,94,0.00,,,0.00,weatherlink.com 1.10,2013-09-12 20:17:00,
2013-09-12 14:32:00,61.4,60.0,30.02,NE,48,1.0,4.0,94,0.00,,,0.00,weatherlink.com 1.10,2013-09-12 20:32:00,
2013-09-12 14:47:00,61.5,60.0,30.01,NE,37,0.0,5.0,95,0.00,,,0.00,weatherlink.com 1.10,2013-09-12 20:47:00,
2013-09-12 15:02:00,61.6,60.0,30.01,East,94,2.0,8.0,95,0.00,,,0.00,weatherlink.com 1.10,2013-09-12 21:02:00,
2013-09-12 15:17:00,61.5,60.0,30.00,NE,49,1.0,5.0,95,0.00,,,0.00,weatherlink.com 1.10,2013-09-12 21:17:00,
2013-09-12 15:32:00,61.4,60.0,30.00,ENE,77,0.0,4.0,95,0.00,,,0.00,weatherlink.com 1.10,2013-09-12 21:32:00,
2013-09-12 15:47:00,61.5,60.0,29.99,East,84,1.0,7.0,95,0.00,,,0.00,weatherlink.com 1.10,2013-09-12 21:47:00,
2013-09-12 16:02:00,61.1,59.0,29.99,East,86,6.0,11.0,93,0.00,,,0.00,weatherlink.com 1.10,2013-09-12 22:02:00,
2013-09-12 16:17:00,61.2,59.0,29.99,NNE,28,2.0,7.0,93,0.00,,,0.00,weatherlink.com 1.10,2013-09-12 22:17:00,
2013-09-12 16:32:00,61.5,60.0,29.99,ENE,57,0.0,5.0,93,0.00,,,0.00,weatherlink.com 1.10,2013-09-12 22:32:00,
2013-09-12 16:47:00,61.6,60.0,29.98,NE,48,0.0,5.0,93,0.00,,,0.00,weatherlink.com 1.10,2013-09-12 22:47:00,
2013-09-12 17:02:00,61.6,59.0,29.99,NNE,32,3.0,4.0,92,0.00,,,0.00,weatherlink.com 1.10,2013-09-12 23:02:00,
2013-09-12 17:17:00,61.3,59.0,29.99,ENE,58,2.0,10.0,92,0.00,,,0.00,weatherlink.com 1.10,2013-09-12 23:17:00,
2013-09-12 17:32:00,61.1,59.0,29.99,SE,126,1.0,11.0,93,0.00,,,0.00,weatherlink.com 1.10,2013-09-12 23:32:00,
2013-09-12 17:48:00,60.9,59.0,29.99,East,82,3.0,7.0,93,0.00,,,0.00,weatherlink.com 1.10,2013-09-12 23:48:00,
2013-09-12 18:02:00,60.8,59.0,29.99,ENE,60,0.0,8.0,93,0.00,,,0.00,weatherlink.com 1.10,2013-09-13 00:02:00,
2013-09-12 18:17:00,60.7,59.0,29.99,ENE,61,0.0,5.0,93,0.00,,,0.00,weatherlink.com 1.10,2013-09-13 00:17:00,
2013-09-12 18:32:00,60.5,59.0,29.99,East,79,0.0,1.0,94,0.00,,,0.00,weatherlink.com 1.10,2013-09-13 00:32:00,
2013-09-12 18:47:00,60.3,59.0,29.99,ENE,76,0.0,1.0,94,0.00,,,0.00,weatherlink.com 1.10,2013-09-13 00:47:00,
2013-09-12 19:02:00,60.3,59.0,30.00,ENE,57,0.0,4.0,94,0.00,,,0.00,weatherlink.com 1.10,2013-09-13 01:02:00,
2013-09-12 19:18:00,60.2,59.0,29.99,ENE,77,1.0,2.0,94,0.00,,,0.00,weatherlink.com 1.10,2013-09-13 01:18:00,
2013-09-12 19:33:00,60.2,59.0,30.00,East,97,1.0,5.0,94,0.00,,,0.00,weatherlink.com 1.10,2013-09-13 01:33:00,
2013-09-12 19:48:00,60.2,59.0,30.00,ENE,73,0.0,3.0,94,0.00,,,0.00,weatherlink.com 1.10,2013-09-13 01:48:00,
2013-09-12 20:03:00,60.2,59.0,30.00,ENE,67,0.0,5.0,94,0.00,,,0.00,weatherlink.com 1.10,2013-09-13 02:03:00,
2013-09-12 20:18:00,60.1,58.0,30.01,ENE,67,0.0,1.0,94,0.00,,,0.00,weatherlink.com 1.10,2013-09-13 02:18:00,
2013-09-12 20:33:00,60.0,58.0,30.01,ENE,66,0.0,0.0,94,0.00,,,0.00,weatherlink.com 1.10,2013-09-13 02:33:00,
2013-09-12 20:48:00,59.8,58.0,30.01,East,96,0.0,2.0,94,0.00,,,0.00,weatherlink.com 1.10,2013-09-13 02:48:00,
2013-09-12 21:03:00,59.5,58.0,30.02,East,92,0.0,5.0,94,0.00,,,0.00,weatherlink.com 1.10,2013-09-13 03:03:00,
2013-09-12 21:18:00,59.3,57.0,30.02,ENE,78,0.0,3.0,93,0.00,,,0.00,weatherlink.com 1.10,2013-09-13 03:18:00,
2013-09-12 21:33:00,59.1,57.0,30.02,ENE,60,0.0,4.0,93,0.00,,,0.00,weatherlink.com 1.10,2013-09-13 03:33:00,
2013-09-12 21:48:00,59.0,57.0,30.02,ENE,63,0.0,4.0,92,0.00,,,0.00,weatherlink.com 1.10,2013-09-13 03:48:00,
2013-09-12 22:03:00,58.8,57.0,30.02,ESE,123,0.0,0.0,93,0.00,,,0.00,weatherlink.com 1.10,2013-09-13 04:03:00,
2013-09-12 22:18:00,58.6,57.0,30.01,ESE,123,0.0,0.0,93,0.00,,,0.00,weatherlink.com 1.10,2013-09-13 04:18:00,
2013-09-12 22:33:00,58.4,56.0,30.01,ESE,123,0.0,1.0,93,0.00,,,0.00,weatherlink.com 1.10,2013-09-13 04:33:00,
2013-09-12 22:48:00,58.2,57.0,30.01,ESE,123,0.0,0.0,94,0.00,,,0.00,weatherlink.com 1.10,2013-09-13 04:48:00,
2013-09-12 23:03:00,58.2,57.0,30.01,ESE,123,0.0,0.0,94,0.00,,,0.00,weatherlink.com 1.10,2013-09-13 05:03:00,
2013-09-12 23:18:00,58.0,56.0,30.00,ESE,123,0.0,0.0,94,0.00,,,0.00,weatherlink.com 1.10,2013-09-13 05:18:00,
2013-09-12 23:33:00,58.1,57.0,30.00,ESE,123,0.0,0.0,95,0.00,,,0.00,weatherlink.com 1.10,2013-09-13 05:33:00,
2013-09-12 23:48:00,58.1,57.0,30.00,ESE,123,0.0,1.0,95,0.00,,,0.00,weatherlink.com 1.10,2013-09-13 05:48:00,